LAGEOS 2

Last updated on Tue Sep 16 2025 00:03:36 GMT+0000 (Coordinated Universal Time)

1 22195U 92070B 25256.97018992 -.00000009 00000+0 00000+0 0 9990 2 22195 52.6510 81.1989 0137755 66.7464 285.5863 6.47293896777537
UTC large
Height (km)
Speed (km/s)
/
Latitude / Longitude
Inclination (degrees)
Orbital Period (minutes)
Azimuth
Elevation
Range (km)
Doppler Factor

Next 0 passes for location: London (51.5072 / 0.1276)

Sorry there are no passes over London.